• In Österreich
  • Länderverzeichnis
  • Für 7 Tage
  • Wassertemperatur
  • Satellitenkarten
  • Wetterkarte
  • News
  • Widgets
  • user-avatar
    Anmelden

    Stündliche Wetter Chechelivka

    Heute, 23 Juni, Samstag

    Zeit Temperatur Niederschläge Wind Luftdruck Luftfeuchtigkeit
    00:00 +15°C° 0,1 mm 4 m/S 738 mmHg 91%
    01:00 +15°C° 0,1 mm 4 m/S 738 mmHg 90%
    02:00 +14°C° 0 mm 3 m/S 737 mmHg 88%
    03:00 +14°C° 0 mm 3 m/S 737 mmHg 88%
    04:00 +14°C° 0 mm 3 m/S 737 mmHg 87%
    05:00 +14°C° 0 mm 3 m/S 737 mmHg 87%
    06:00 +14°C° 0 mm 4 m/S 737 mmHg 86%
    07:00 +14°C° 0 mm 4 m/S 737 mmHg 85%
    08:00 +14°C° 0 mm 4 m/S 737 mmHg 84%
    09:00 +15°C° 0 mm 5 m/S 737 mmHg 83%
    10:00 +15°C° 0 mm 5 m/S 737 mmHg 81%
    11:00 +16°C° 0 mm 6 m/S 738 mmHg 80%
    12:00 +15°C° 0,1 mm 6 m/S 738 mmHg 81%
    13:00 +15°C° 0,1 mm 5 m/S 738 mmHg 81%
    14:00 +15°C° 0,1 mm 5 m/S 738 mmHg 82%
    15:00 +15°C° 0,1 mm 5 m/S 738 mmHg 81%
    16:00 +15°C° 0,1 mm 5 m/S 738 mmHg 81%
    17:00 +15°C° 0,1 mm 4 m/S 738 mmHg 80%
    18:00 +14°C° 0,1 mm 4 m/S 738 mmHg 83%
    19:00 +13°C° 0,1 mm 3 m/S 738 mmHg 86%
    20:00 +12°C° 0,1 mm 3 m/S 738 mmHg 89%
    21:00 +12°C° 0 mm 3 m/S 739 mmHg 91%
    22:00 +11°C° 0 mm 3 m/S 739 mmHg 92%
    23:00 +10°C° 0 mm 4 m/S 740 mmHg 94%

    Morgen, 24 Juni, Sonntag

    Zeit Temperatur Niederschläge Wind Luftdruck Luftfeuchtigkeit
    00:00 +10°C° 0 mm 3 m/S 740 mmHg 95%
    01:00 +9°C° 0 mm 3 m/S 740 mmHg 95%
    02:00 +9°C° 0 mm 3 m/S 740 mmHg 96%
    03:00 +9°C° 0 mm 3 m/S 740 mmHg 95%
    04:00 +9°C° 0 mm 3 m/S 741 mmHg 95%
    05:00 +8°C° 0 mm 3 m/S 741 mmHg 94%
    06:00 +10°C° 0 mm 3 m/S 741 mmHg 88%
    07:00 +12°C° 0 mm 3 m/S 741 mmHg 83%
    08:00 +14°C° 0 mm 4 m/S 741 mmHg 77%
    09:00 +15°C° 0 mm 4 m/S 742 mmHg 72%
    10:00 +17°C° 0 mm 4 m/S 742 mmHg 67%
    11:00 +17°C° 0 mm 5 m/S 742 mmHg 62%
    12:00 +19°C° 0 mm 5 m/S 742 mmHg 61%
    13:00 +19°C° 0 mm 5 m/S 742 mmHg 60%
    14:00 +20°C° 0 mm 5 m/S 742 mmHg 59%
    15:00 +20°C° 0,1 mm 4 m/S 742 mmHg 61%
    16:00 +19°C° 0,1 mm 4 m/S 742 mmHg 62%
    17:00 +19°C° 0,1 mm 4 m/S 742 mmHg 64%
    18:00 +18°C° 0 mm 3 m/S 742 mmHg 69%
    19:00 +16°C° 0 mm 2 m/S 742 mmHg 74%
    20:00 +15°C° 0 mm 2 m/S 742 mmHg 80%
    21:00 +14°C° 0 mm 1 m/S 742 mmHg 82%
    22:00 +14°C° 0 mm 1 m/S 743 mmHg 84%
    23:00 +13°C° 0 mm 1 m/S 743 mmHg 86%

    übermorgen, 25 Juni, Montag

    Zeit Temperatur Niederschläge Wind Luftdruck Luftfeuchtigkeit
    00:00 +12°C° 0 mm 1 m/S 743 mmHg 86%
    01:00 +12°C° 0 mm 1 m/S 743 mmHg 87%
    02:00 +11°C° 0 mm 0 m/S 743 mmHg 87%
    03:00 +11°C° 0 mm 0 m/S 743 mmHg 87%
    04:00 +11°C° 0 mm 0 m/S 743 mmHg 87%
    05:00 +12°C° 0 mm 1 m/S 743 mmHg 87%
    06:00 +14°C° 0 mm 1 m/S 744 mmHg 82%
    07:00 +16°C° 0 mm 1 m/S 744 mmHg 76%
    08:00 +19°C° 0 mm 1 m/S 744 mmHg 71%
    09:00 +19°C° 0,6 mm 1 m/S 744 mmHg 69%
    10:00 +19°C° 0,6 mm 2 m/S 744 mmHg 67%
    11:00 +20°C° 0,6 mm 2 m/S 744 mmHg 64%
    12:00 +21°C° 0,7 mm 2 m/S 744 mmHg 63%
    13:00 +21°C° 0,7 mm 2 m/S 744 mmHg 62%
    14:00 +23°C° 0,7 mm 2 m/S 744 mmHg 60%
    15:00 +23°C° 0,2 mm 1 m/S 744 mmHg 60%
    16:00 +23°C° 0,2 mm 1 m/S 744 mmHg 60%
    17:00 +23°C° 0,2 mm 1 m/S 744 mmHg 59%
    18:00 +21°C° 0,2 mm 1 m/S 744 mmHg 65%
    19:00 +20°C° 0,2 mm 1 m/S 744 mmHg 70%
    20:00 +16°C° 0,2 mm 0 m/S 745 mmHg 75%
    21:00 +16°C° 0,1 mm 0 m/S 745 mmHg 77%
    22:00 +15°C° 0,1 mm 0 m/S 745 mmHg 79%
    23:00 +15°C° 0,1 mm 1 m/S 745 mmHg 81%

    26 Juni, Dienstag

    Zeit Temperatur Niederschläge Wind Luftdruck Luftfeuchtigkeit
    00:00 +15°C° 0 mm 1 m/S 745 mmHg 82%
    01:00 +15°C° 0 mm 1 m/S 745 mmHg 83%
    02:00 +14°C° 0 mm 1 m/S 745 mmHg 84%
    03:00 +14°C° 0 mm 1 m/S 745 mmHg 85%
    04:00 +14°C° 0 mm 1 m/S 745 mmHg 86%
    05:00 +14°C° 0 mm 1 m/S 745 mmHg 87%
    06:00 +16°C° 0 mm 1 m/S 745 mmHg 82%
    07:00 +19°C° 0 mm 1 m/S 745 mmHg 78%
    08:00 +20°C° 0 mm 2 m/S 746 mmHg 73%
    09:00 +21°C° 0,3 mm 2 m/S 745 mmHg 68%
    10:00 +23°C° 0,3 mm 1 m/S 745 mmHg 64%
    11:00 +24°C° 0,3 mm 1 m/S 745 mmHg 59%
    12:00 +24°C° 0,3 mm 1 m/S 745 mmHg 58%
    13:00 +24°C° 0,3 mm 2 m/S 745 mmHg 57%
    14:00 +25°C° 0,3 mm 2 m/S 745 mmHg 57%
    15:00 +24°C° 0,3 mm 2 m/S 744 mmHg 59%
    16:00 +24°C° 0,3 mm 2 m/S 744 mmHg 61%
    17:00 +24°C° 0,3 mm 2 m/S 744 mmHg 64%
    18:00 +23°C° 0,1 mm 2 m/S 744 mmHg 69%
    19:00 +20°C° 0,1 mm 2 m/S 744 mmHg 75%
    20:00 +19°C° 0,1 mm 2 m/S 744 mmHg 81%
    21:00 +18°C° 0,1 mm 2 m/S 744 mmHg 83%
    22:00 +17°C° 0,1 mm 2 m/S 744 mmHg 86%
    23:00 +16°C° 0,1 mm 2 m/S 744 mmHg 88%

    27 Juni, Mittwoch

    Zeit Temperatur Niederschläge Wind Luftdruck Luftfeuchtigkeit
    00:00 +16°C° 0 mm 2 m/S 744 mmHg 89%
    01:00 +16°C° 0 mm 2 m/S 744 mmHg 90%
    02:00 +14°C° 0 mm 3 m/S 743 mmHg 91%
    03:00 +14°C° 0 mm 3 m/S 743 mmHg 92%
    04:00 +14°C° 0 mm 3 m/S 743 mmHg 92%
    05:00 +14°C° 0 mm 3 m/S 743 mmHg 93%
    06:00 +17°C° 0 mm 4 m/S 743 mmHg 88%
    07:00 +19°C° 0 mm 4 m/S 743 mmHg 83%
    08:00 +20°C° 0 mm 4 m/S 743 mmHg 79%
    09:00 +22°C° 0 mm 5 m/S 743 mmHg 73%
    10:00 +23°C° 0 mm 5 m/S 743 mmHg 68%
    11:00 +25°C° 0 mm 5 m/S 742 mmHg 63%
    12:00 +25°C° 0,1 mm 5 m/S 742 mmHg 63%
    13:00 +26°C° 0,1 mm 5 m/S 742 mmHg 63%
    14:00 +26°C° 0,1 mm 5 m/S 741 mmHg 62%
    15:00 +26°C° 0 mm 5 m/S 741 mmHg 64%
    16:00 +26°C° 0 mm 5 m/S 741 mmHg 66%
    17:00 +26°C° 0 mm 5 m/S 741 mmHg 68%
    18:00 +23°C° 0 mm 4 m/S 741 mmHg 73%
    19:00 +22°C° 0 mm 4 m/S 740 mmHg 79%
    20:00 +21°C° 0 mm 3 m/S 740 mmHg 84%
    21:00 +20°C° 0 mm 3 m/S 740 mmHg 87%
    22:00 +19°C° 0 mm 3 m/S 740 mmHg 89%
    23:00 +19°C° 0 mm 3 m/S 740 mmHg 92%

    28 Juni, Donnerstag

    Zeit Temperatur Niederschläge Wind Luftdruck Luftfeuchtigkeit
    00:00 +18°C° 0,1 mm 3 m/S 740 mmHg 93%
    01:00 +18°C° 0,1 mm 3 m/S 740 mmHg 95%
    02:00 +18°C° 0,1 mm 3 m/S 739 mmHg 96%
    03:00 +18°C° 0,2 mm 4 m/S 739 mmHg 96%
    04:00 +18°C° 0,2 mm 4 m/S 739 mmHg 96%
    05:00 +18°C° 0,2 mm 4 m/S 739 mmHg 96%
    06:00 +18°C° 0,2 mm 4 m/S 738 mmHg 95%
    07:00 +18°C° 0,2 mm 4 m/S 738 mmHg 94%
    08:00 +19°C° 0,2 mm 5 m/S 738 mmHg 93%
    09:00 +19°C° 0,1 mm 4 m/S 738 mmHg 91%
    10:00 +20°C° 0,1 mm 4 m/S 738 mmHg 88%
    11:00 +21°C° 0,1 mm 4 m/S 738 mmHg 86%
    12:00 +22°C° 0,1 mm 4 m/S 738 mmHg 85%
    13:00 +22°C° 0,1 mm 3 m/S 738 mmHg 84%
    14:00 +24°C° 0,1 mm 3 m/S 737 mmHg 83%
    15:00 +24°C° 0,1 mm 3 m/S 737 mmHg 83%
    16:00 +24°C° 0,1 mm 3 m/S 737 mmHg 83%
    17:00 +25°C° 0,1 mm 2 m/S 737 mmHg 82%
    18:00 +24°C° 0,6 mm 2 m/S 737 mmHg 86%
    19:00 +23°C° 0,6 mm 2 m/S 737 mmHg 89%
    20:00 +22°C° 0,6 mm 1 m/S 736 mmHg 92%
    21:00 +22°C° 0,1 mm 1 m/S 736 mmHg 92%
    22:00 +21°C° 0,1 mm 1 m/S 736 mmHg 92%
    23:00 +21°C° 0,1 mm 1 m/S 736 mmHg 93%
    Mehr zeigen